QPF
0.02 0.03 0.01 0.01 0.01 0.01 0.01 0.02 0.02 0.02 0.02 0.01 0.01 0.01 0.01 0.02 0.02 0.02 0.02 0.02 0.02 0.02 0.01 0.02 0.01 0.01 0.01 0.01 0.01 0.01 0.02 0.02 0.03 0.04 0.04 0.05 0.05 0.05 0.04 0.04 0.04 0.03 0.03
0.03 0.03 0.01 0.01 0.01 0.01 0.01 0.02 0.01 0.02 0.02 0.02 0.02 0.02 0.02 0.03 0.03 0.03 0.03 0.03 0.03 0.04 0.03 0.02 0.01 0.01 0.01 0.01 0.01 0.01 0.01 0.02 0.02 0.03 0.03 0.03 0.03 0.04 0.04 0.04 0.03 0.04 0.03
0.04 0.03 0.03 0.03 0.02 0.02 0.02 0.02 0.02 0.02 0.02 0.02 0.02 0.02 0.02 0.02 0.03 0.04 0.04 0.05 0.05 0.05 0.05 0.05 0.04 0.03 0.02 0.01 0.01 0.02 0.02 0.01 0.01 0.02 0.02 0.02 0.02 0.03 0.03 0.03 0.03 0.05 0.05
0.03 0.03 0.03 0.05 0.05 0.05 0.03 0.04 0.03 0.02 0.02 0.01 0.01 0.01 0.01 0.01 0.01 0.02 0.03 0.04 0.05 0.05 0.05 0.04 0.04 0.04 0.03 0.02 0.02 0.02 0.02 0.02 0.02 0.02 0.02 0.03 0.02 0.02 0.02 0.03 0.03 0.04 0.06
0.02 0.02 0.02 0.04 0.06 0.06 0.06 0.07 0.05 0.03 0.01 0.01 0.01 0.01 0.02 0.02 0.02 0.02 0.03 0.03 0.04 0.05 0.05 0.04 0.03 0.03 0.03 0.03 0.02 0.02 0.03 0.03 0.03 0.03 0.03 0.03 0.03 0.02 0.02 0.02 0.02 0.02 0.04
0.01 0.01 0.02 0.02 0.03 0.04 0.04 0.05 0.05 0.05 0.04 0.03 0.02 0.02 0.02 0.02 0.03 0.03 0.04 0.04 0.04 0.05 0.05 0.04 0.03 0.03 0.03 0.04 0.03 0.03 0.03 0.03 0.04 0.04 0.03 0.02 0.02 0.02 0.02 0.02 0.02 0.01 0.01
0.01 0.02 0.02 0.02 0.02 0.02 0.03 0.03 0.04 0.04 0.05 0.05 0.03 0.02 0.02 0.02 0.03 0.04 0.04 0.03 0.04 0.06 0.06 0.04 0.03 0.02 0.03 0.03 0.04 0.04 0.02 0.02 0.03 0.03 0.03 0.02 0.01 0.02 0.03 0.02 0.01 0.01 0.01
0.02 0.02 0.03 0.02 0.01 0.02 0.03 0.03 0.03 0.04 0.04 0.05 0.05 0.03 0.02 0.02 0.03 0.03 0.03 0.04 0.05 0.06 0.06 0.06 0.04 0.03 0.03 0.03 0.03 0.03 0.02 0.02 0.02 0.02 0.03 0.03 0.02 0.02 0.04 0.04 0.02 0.01 0.01
0.04 0.02 0.01 0.01 0.01 0.01 0.02 0.03 0.03 0.04 0.04 0.05 0.05 0.03 0.03 0.02 0.01 0.01 0.02 0.03 0.04 0.03 0.03 0.04 0.04 0.03 0.04 0.04 0.03 0.02 0.02 0.02 0.02 0.02 0.03 0.04 0.05 0.04 0.03 0.07 0.05 0.02 0.01
0.05 0.04 0.03 0.02 0.01 0.01 0.00 0.01 0.03 0.04 0.04 0.05 0.05 0.04 0.04 0.03 0.02 0.02 0.02 0.02 0.03 0.03 0.03 0.03 0.04 0.04 0.04 0.04 0.04 0.03 0.02 0.02 0.02 0.02 0.02 0.03 0.04 0.04 0.04 0.05 0.06 0.03 0.01
0.04 0.03 0.03 0.03 0.02 0.02 0.02 0.01 0.01 0.02 0.04 0.04 0.04 0.04 0.03 0.03 0.03 0.03 0.03 0.02 0.03 0.03 0.03 0.03 0.02 0.03 0.03 0.03 0.03 0.03 0.02 0.02 0.02 0.02 0.02 0.03 0.03 0.04 0.04 0.05 0.07 0.05 0.02
0.02 0.02 0.03 0.03 0.04 0.04 0.04 0.02 0.01 0.01 0.02 0.03 0.04 0.04 0.05 0.05 0.04 0.04 0.04 0.03 0.03 0.03 0.04 0.03 0.02 0.03 0.03 0.03 0.02 0.02 0.03 0.03 0.04 0.03 0.03 0.03 0.03 0.04 0.04 0.05 0.07 0.06 0.03
0.01 0.01 0.02 0.03 0.04 0.04 0.04 0.04 0.02 0.01 0.01 0.02 0.03 0.04 0.05 0.06 0.05 0.04 0.04 0.04 0.04 0.04 0.04 0.04 0.04 0.04 0.04 0.03 0.03 0.04 0.04 0.04 0.04 0.04 0.04 0.04 0.05 0.05 0.06 0.06 0.07 0.06 0.04
0.01 0.01 0.01 0.01 0.02 0.02 0.03 0.04 0.03 0.02 0.02 0.01 0.02 0.03 0.05 0.05 0.06 0.05 0.04 0.04 0.05 0.05 0.06 0.06 0.06 0.06 0.05 0.04 0.04 0.05 0.06 0.05 0.04 0.04 0.04 0.05 0.07 0.08 0.08 0.08 0.09 0.08 0.06
0.01 0.01 0.01 0.01 0.01 0.01 0.01 0.01 0.02 0.02 0.02 0.02 0.02 0.02 0.04 0.06 0.09 0.10 0.07 0.05 0.06 0.06 0.07 0.07 0.07 0.07 0.05 0.04 0.04 0.04 0.04 0.04 0.04 0.04 0.04 0.04 0.05 0.05 0.06 0.07 0.07 0.07 0.06
0.02 0.02 0.02 0.02 0.02 0.02 0.01 0.01 0.02 0.01 0.01 0.02 0.02 0.02 0.03 0.04 0.07 0.10 0.10 0.07 0.06 0.06 0.07 0.06 0.07 0.07 0.07 0.08 0.08 0.07 0.06 0.05 0.04 0.03 0.03 0.03 0.03 0.04 0.04 0.06 0.06 0.05 0.06
0.02 0.02 0.02 0.02 0.03 0.03 0.02 0.02 0.02 0.02 0.01 0.01 0.01 0.01 0.02 0.02 0.03 0.04 0.06 0.06 0.05 0.05 0.06 0.06 0.06 0.06 0.06 0.06 0.07 0.08 0.08 0.08 0.07 0.06 0.05 0.04 0.04 0.04 0.04 0.04 0.06 0.06 0.06
0.01 0.02 0.02 0.03 0.03 0.03 0.02 0.02 0.02 0.02 0.02 0.01 0.01 0.01 0.01 0.01 0.02 0.02 0.03 0.03 0.04 0.05 0.06 0.06 0.06 0.06 0.05 0.05 0.05 0.04 0.04 0.05 0.05 0.06 0.07 0.06 0.05 0.06 0.06 0.05 0.05 0.05 0.05
0.01 0.02 0.02 0.03 0.03 0.03 0.03 0.02 0.02 0.02 0.02 0.02 0.01 0.01 0.01 0.01 0.01 0.02 0.02 0.03 0.03 0.05 0.07 0.07 0.08 0.08 0.08 0.06 0.06 0.05 0.04 0.04 0.03 0.04 0.04 0.04 0.05 0.05 0.06 0.06 0.05 0.06 0.06
0.01 0.02 0.02 0.02 0.03 0.03 0.03 0.04 0.03 0.03 0.02 0.02 0.01 0.01 0.01 0.01 0.01 0.01 0.02 0.03 0.03 0.03 0.05 0.06 0.07 0.10 0.10 0.09 0.08 0.06 0.05 0.04 0.04 0.03 0.03 0.04 0.04 0.05 0.05 0.05 0.06 0.06 0.06
0.01 0.01 0.02 0.02 0.02 0.04 0.05 0.05 0.04 0.04 0.03 0.02 0.02 0.01 0.01 0.02 0.02 0.02 0.02 0.03 0.04 0.04 0.04 0.06 0.06 0.08 0.09 0.09 0.09 0.09 0.08 0.06 0.05 0.04 0.03 0.04 0.04 0.04 0.04 0.05 0.06 0.07 0.08
0.01 0.01 0.01 0.01 0.02 0.03 0.04 0.05 0.05 0.05 0.04 0.03 0.02 0.01 0.02 0.02 0.02 0.03 0.04 0.04 0.05 0.05 0.05 0.06 0.06 0.07 0.06 0.05 0.06 0.06 0.07 0.07 0.07 0.05 0.04 0.03 0.03 0.03 0.03 0.03 0.04 0.05 0.06
0.01 0.01 0.01 0.01 0.01 0.02 0.03 0.04 0.05 0.05 0.05 0.05 0.05 0.03 0.03 0.03 0.04 0.05 0.05 0.05 0.05 0.06 0.06 0.06 0.06 0.06 0.06 0.05 0.05 0.04 0.04 0.04 0.04 0.04 0.03 0.03 0.02 0.02 0.02 0.02 0.02 0.03 0.04
0.00 0.00 0.01 0.01 0.01 0.01 0.02 0.03 0.04 0.05 0.06 0.06 0.06 0.07 0.05 0.04 0.04 0.04 0.04 0.04 0.05 0.05 0.06 0.06 0.06 0.06 0.06 0.06 0.05 0.04 0.04 0.04 0.03 0.03 0.03 0.02 0.02 0.02 0.02 0.02 0.02 0.02 0.02
0.00 0.01 0.01 0.01 0.01 0.01 0.01 0.02 0.02 0.03 0.04 0.05 0.05 0.06 0.07 0.06 0.05 0.04 0.04 0.04 0.04 0.04 0.04 0.05 0.05 0.05 0.05 0.05 0.04 0.04 0.04 0.04 0.03 0.03 0.02 0.02 0.02 0.02 0.02 0.02 0.02 0.01 0.01
0.01 0.01 0.01 0.01 0.01 0.01 0.01 0.01 0.01 0.02 0.03 0.03 0.03 0.04 0.04 0.05 0.05 0.04 0.02 0.02 0.02 0.02 0.02 0.02 0.02 0.03 0.03 0.03 0.02 0.02 0.02 0.02 0.02 0.02 0.01 0.01 0.01 0.01 0.01 0.01 0.01 0.01 0.01
MSLP
1009.74 1009.61 1009.50 1009.38 1009.25 1009.11 1008.98 1008.89 1008.84 1008.88 1008.99 1009.19 1009.46 1009.76 1010.07 1010.36 1010.60 1010.80 1010.95 1011.07 1011.18 1011.30 1011.47 1011.68 1011.96 1012.29 1012.66 1013.07 1013.49 1013.91 1014.31 1014.69 1015.04 1015.36 1015.65 1015.94 1016.23 1016.54 1016.87 1017.23 1017.62 1018.04 1018.46
1010.30 1010.16 1010.01 1009.84 1009.65 1009.45 1009.27 1009.11 1009.01 1008.99 1009.06 1009.20 1009.42 1009.67 1009.93 1010.17 1010.37 1010.51 1010.61 1010.68 1010.73 1010.79 1010.89 1011.05 1011.27 1011.56 1011.92 1012.32 1012.77 1013.23 1013.69 1014.14 1014.56 1014.96 1015.34 1015.70 1016.06 1016.41 1016.79 1017.18 1017.59 1018.03 1018.46
1010.70 1010.59 1010.45 1010.27 1010.07 1009.84 1009.62 1009.42 1009.27 1009.18 1009.18 1009.26 1009.39 1009.57 1009.76 1009.93 1010.07 1010.17 1010.23 1010.25 1010.25 1010.27 1010.31 1010.42 1010.59 1010.85 1011.17 1011.57 1012.02 1012.51 1013.01 1013.52 1014.02 1014.50 1014.95 1015.39 1015.81 1016.23 1016.65 1017.08 1017.53 1017.98 1018.43
1010.92 1010.87 1010.78 1010.63 1010.45 1010.22 1009.99 1009.76 1009.56 1009.41 1009.33 1009.31 1009.35 1009.43 1009.52 1009.62 1009.69 1009.74 1009.74 1009.73 1009.69 1009.67 1009.68 1009.75 1009.88 1010.09 1010.39 1010.76 1011.20 1011.70 1012.23 1012.78 1013.33 1013.87 1014.39 1014.90 1015.39 1015.87 1016.35 1016.83 1017.31 1017.81 1018.29
1010.99 1011.01 1010.98 1010.90 1010.76 1010.57 1010.34 1010.09 1009.86 1009.64 1009.47 1009.34 1009.27 1009.24 1009.23 1009.23 1009.22 1009.20 1009.16 1009.10 1009.04 1008.99 1008.97 1008.99 1009.08 1009.26 1009.51 1009.85 1010.27 1010.75 1011.28 1011.85 1012.43 1013.02 1013.59 1014.16 1014.71 1015.25 1015.79 1016.33 1016.87 1017.42 1017.96
1010.94 1011.04 1011.08 1011.07 1010.99 1010.84 1010.64 1010.39 1010.12 1009.85 1009.60 1009.37 1009.18 1009.02 1008.90 1008.79 1008.70 1008.61 1008.51 1008.41 1008.31 1008.23 1008.17 1008.16 1008.21 1008.33 1008.54 1008.83 1009.20 1009.66 1010.17 1010.73 1011.32 1011.92 1012.53 1013.14 1013.74 1014.34 1014.94 1015.54 1016.15 1016.76 1017.39
1010.83 1010.99 1011.10 1011.15 1011.14 1011.04 1010.87 1010.63 1010.35 1010.04 1009.71 1009.40 1009.10 1008.83 1008.59 1008.38 1008.19 1008.02 1007.85 1007.70 1007.56 1007.43 1007.34 1007.28 1007.28 1007.35 1007.50 1007.73 1008.05 1008.46 1008.93 1009.47 1010.04 1010.65 1011.27 1011.90 1012.54 1013.18 1013.83 1014.49 1015.17 1015.86 1016.58
1010.69 1010.89 1011.05 1011.15 1011.19 1011.14 1011.01 1010.80 1010.52 1010.19 1009.82 1009.44 1009.06 1008.70 1008.36 1008.05 1007.77 1007.51 1007.27 1007.05 1006.85 1006.67 1006.52 1006.40 1006.34 1006.36 1006.44 1006.62 1006.89 1007.24 1007.67 1008.17 1008.72 1009.31 1009.93 1010.56 1011.22 1011.88 1012.57 1013.28 1014.02 1014.79 1015.59
1010.52 1010.74 1010.93 1011.07 1011.14 1011.14 1011.05 1010.87 1010.61 1010.28 1009.91 1009.50 1009.07 1008.65 1008.24 1007.85 1007.48 1007.14 1006.82 1006.52 1006.24 1005.98 1005.76 1005.58 1005.46 1005.40 1005.43 1005.55 1005.77 1006.08 1006.47 1006.94 1007.46 1008.03 1008.64 1009.27 1009.93 1010.61 1011.32 1012.06 1012.84 1013.67 1014.53
1010.32 1010.54 1010.73 1010.88 1010.98 1011.00 1010.95 1010.82 1010.60 1010.30 1009.95 1009.55 1009.12 1008.67 1008.21 1007.77 1007.33 1006.90 1006.49 1006.10 1005.73 1005.38 1005.07 1004.82 1004.62 1004.51 1004.48 1004.56 1004.74 1005.02 1005.39 1005.84 1006.36 1006.92 1007.52 1008.15 1008.81 1009.49 1010.20 1010.96 1011.75 1012.60 1013.50
1010.05 1010.25 1010.43 1010.57 1010.68 1010.72 1010.71 1010.62 1010.46 1010.22 1009.92 1009.56 1009.15 1008.71 1008.24 1007.75 1007.25 1006.75 1006.25 1005.75 1005.28 1004.83 1004.42 1004.08 1003.81 1003.64 1003.57 1003.62 1003.79 1004.07 1004.44 1004.90 1005.42 1006.00 1006.61 1007.25 1007.91 1008.59 1009.30 1010.05 1010.84 1011.69 1012.58
1009.69 1009.86 1010.01 1010.14 1010.24 1010.30 1010.31 1010.28 1010.18 1010.01 1009.77 1009.48 1009.11 1008.70 1008.23 1007.72 1007.17 1006.59 1006.00 1005.40 1004.81 1004.24 1003.74 1003.30 1002.96 1002.73 1002.63 1002.67 1002.84 1003.13 1003.54 1004.03 1004.59 1005.21 1005.85 1006.52 1007.20 1007.89 1008.60 1009.34 1010.12 1010.95 1011.82
1009.22 1009.35 1009.47 1009.58 1009.67 1009.74 1009.79 1009.80 1009.76 1009.66 1009.50 1009.27 1008.96 1008.58 1008.12 1007.59 1007.00 1006.35 1005.66 1004.95 1004.23 1003.56 1002.94 1002.41 1001.99 1001.71 1001.59 1001.62 1001.81 1002.13 1002.59 1003.14 1003.76 1004.44 1005.14 1005.86 1006.58 1007.31 1008.04 1008.79 1009.55 1010.36 1011.19
1008.62 1008.74 1008.83 1008.93 1009.02 1009.10 1009.17 1009.22 1009.23 1009.20 1009.10 1008.93 1008.67 1008.32 1007.87 1007.32 1006.67 1005.95 1005.16 1004.34 1003.52 1002.72 1001.99 1001.37 1000.88 1000.55 1000.39 1000.42 1000.62 1000.99 1001.50 1002.11 1002.81 1003.57 1004.35 1005.14 1005.93 1006.72 1007.50 1008.27 1009.05 1009.85 1010.67
1007.92 1008.03 1008.13 1008.22 1008.32 1008.42 1008.51 1008.60 1008.66 1008.67 1008.62 1008.49 1008.26 1007.92 1007.47 1006.89 1006.19 1005.40 1004.52 1003.60 1002.67 1001.76 1000.94 1000.22 999.66 999.27 999.07 999.09 999.30 999.69 1000.24 1000.91 1001.68 1002.52 1003.38 1004.27 1005.15 1006.01 1006.86 1007.70 1008.53 1009.36 1010.19
1007.17 1007.29 1007.40 1007.52 1007.64 1007.76 1007.89 1008.00 1008.09 1008.13 1008.11 1008.00 1007.78 1007.44 1006.96 1006.35 1005.61 1004.75 1003.80 1002.80 1001.78 1000.79 999.87 999.08 998.44 998.00 997.76 997.74 997.94 998.33 998.89 999.59 1000.41 1001.30 1002.24 1003.21 1004.19 1005.15 1006.10 1007.04 1007.95 1008.85 1009.73
1006.41 1006.56 1006.71 1006.86 1007.02 1007.18 1007.34 1007.48 1007.59 1007.65 1007.64 1007.53 1007.31 1006.95 1006.45 1005.81 1005.03 1004.13 1003.13 1002.07 1001.00 999.95 998.98 998.12 997.43 996.93 996.64 996.57 996.72 997.08 997.62 998.32 999.14 1000.06 1001.05 1002.08 1003.14 1004.20 1005.26 1006.30 1007.33 1008.33 1009.31
1005.69 1005.89 1006.09 1006.30 1006.51 1006.71 1006.90 1007.07 1007.19 1007.26 1007.25 1007.14 1006.90 1006.53 1006.02 1005.36 1004.57 1003.65 1002.64 1001.57 1000.48 999.42 998.43 997.55 996.82 996.27 995.93 995.80 995.89 996.18 996.66 997.31 998.10 999.00 1000.00 1001.06 1002.17 1003.31 1004.46 1005.62 1006.76 1007.88 1008.97
1005.07 1005.32 1005.57 1005.83 1006.09 1006.34 1006.57 1006.76 1006.91 1006.98 1006.96 1006.85 1006.60 1006.23 1005.72 1005.08 1004.30 1003.42 1002.44 1001.41 1000.36 999.33 998.36 997.49 996.76 996.19 995.80 995.62 995.63 995.84 996.23 996.80 997.51 998.35 999.31 1000.36 1001.49 1002.66 1003.88 1005.12 1006.36 1007.58 1008.78
1004.57 1004.86 1005.16 1005.47 1005.77 1006.06 1006.32 1006.54 1006.70 1006.78 1006.77 1006.66 1006.43 1006.08 1005.60 1005.00 1004.28 1003.47 1002.58 1001.63 1000.67 999.73 998.83 998.02 997.32 996.76 996.35 996.12 996.07 996.19 996.48 996.94 997.55 998.30 999.18 1000.17 1001.26 1002.43 1003.67 1004.94 1006.24 1007.54 1008.82
1004.22 1004.52 1004.85 1005.18 1005.52 1005.84 1006.13 1006.37 1006.54 1006.64 1006.65 1006.56 1006.36 1006.05 1005.63 1005.11 1004.49 1003.78 1003.01 1002.20 1001.37 1000.56 999.78 999.06 998.44 997.92 997.53 997.28 997.18 997.23 997.43 997.78 998.28 998.92 999.69 1000.59 1001.61 1002.72 1003.92 1005.18 1006.48 1007.80 1009.11
1004.02 1004.31 1004.64 1004.98 1005.32 1005.66 1005.96 1006.21 1006.40 1006.52 1006.56 1006.51 1006.36 1006.12 1005.78 1005.36 1004.86 1004.29 1003.67 1003.02 1002.35 1001.69 1001.06 1000.47 999.95 999.52 999.18 998.94 998.83 998.83 998.97 999.23 999.62 1000.15 1000.81 1001.60 1002.51 1003.53 1004.64 1005.83 1007.07 1008.35 1009.63
1003.97 1004.24 1004.53 1004.85 1005.18 1005.51 1005.81 1006.07 1006.28 1006.42 1006.50 1006.49 1006.40 1006.23 1005.99 1005.68 1005.31 1004.89 1004.43 1003.94 1003.44 1002.95 1002.48 1002.04 1001.65 1001.31 1001.05 1000.86 1000.77 1000.77 1000.87 1001.08 1001.40 1001.84 1002.39 1003.07 1003.86 1004.75 1005.75 1006.82 1007.95 1009.12 1010.31
1004.08 1004.30 1004.54 1004.83 1005.13 1005.43 1005.72 1005.98 1006.20 1006.36 1006.47 1006.51 1006.49 1006.40 1006.25 1006.04 1005.79 1005.50 1005.18 1004.85 1004.50 1004.16 1003.84 1003.54 1003.27 1003.05 1002.88 1002.77 1002.73 1002.76 1002.87 1003.06 1003.34 1003.71 1004.19 1004.76 1005.43 1006.20 1007.06 1007.98 1008.97 1010.00 1011.04
1004.34 1004.50 1004.70 1004.93 1005.19 1005.46 1005.74 1005.99 1006.22 1006.40 1006.54 1006.62 1006.66 1006.63 1006.56 1006.44 1006.28 1006.10 1005.89 1005.67 1005.44 1005.22 1005.02 1004.83 1004.68 1004.56 1004.48 1004.46 1004.48 1004.56 1004.70 1004.91 1005.18 1005.52 1005.94 1006.44 1007.01 1007.66 1008.37 1009.15 1009.97 1010.84 1011.72
1004.75 1004.86 1005.01 1005.20 1005.43 1005.67 1005.93 1006.18 1006.41 1006.60 1006.77 1006.89 1006.96 1006.98 1006.96 1006.91 1006.81 1006.70 1006.56 1006.41 1006.26 1006.11 1005.98 1005.88 1005.80 1005.76 1005.76 1005.81 1005.90 1006.03 1006.22 1006.45 1006.74 1007.07 1007.46 1007.90 1008.40 1008.94 1009.53 1010.16 1010.83 1011.53 1012.25
Thickness
5678 5676 5674 5672 5670 5667 5663 5661 5658 5656 5652 5650 5648 5646 5644 5643 5641 5639 5638 5638 5637 5637 5638 5638 5637 5638 5637 5636 5636 5635 5633 5632 5628 5629 5631 5633 5633 5632 5632 5631 5631 5630 5629
5672 5670 5668 5666 5664 5661 5658 5656 5654 5651 5648 5645 5643 5640 5639 5637 5636 5634 5633 5633 5632 5632 5632 5632 5632 5632 5631 5631 5629 5628 5627 5626 5624 5622 5623 5624 5625 5626 5625 5625 5624 5624 5623
5666 5664 5661 5659 5657 5654 5652 5650 5648 5645 5642 5640 5637 5634 5632 5631 5630 5629 5628 5628 5627 5627 5626 5626 5626 5626 5625 5624 5624 5622 5622 5621 5619 5617 5616 5617 5618 5619 5618 5617 5617 5617 5616
5659 5656 5653 5651 5649 5647 5645 5643 5641 5638 5636 5633 5630 5628 5626 5624 5623 5623 5622 5622 5621 5621 5621 5621 5620 5620 5620 5619 5618 5617 5616 5614 5612 5611 5609 5609 5610 5611 5610 5609 5608 5608 5608
5651 5648 5646 5644 5642 5640 5637 5634 5633 5630 5628 5625 5622 5620 5618 5617 5617 5616 5615 5615 5615 5615 5615 5615 5615 5615 5615 5614 5613 5611 5610 5607 5605 5603 5602 5601 5601 5601 5601 5602 5600 5600 5600
5643 5641 5639 5636 5633 5630 5628 5626 5624 5622 5619 5617 5614 5612 5610 5610 5610 5609 5609 5608 5608 5607 5607 5608 5609 5609 5609 5608 5607 5606 5604 5602 5599 5597 5596 5595 5595 5596 5596 5596 5594 5592 5590
5635 5632 5630 5627 5624 5622 5620 5617 5615 5612 5610 5608 5606 5604 5602 5602 5602 5601 5601 5600 5600 5600 5600 5600 5601 5602 5601 5599 5598 5598 5597 5597 5596 5593 5590 5590 5590 5591 5590 5589 5588 5586 5584
5626 5623 5620 5617 5615 5613 5610 5607 5605 5604 5602 5600 5599 5597 5595 5594 5594 5593 5593 5592 5592 5592 5593 5592 5592 5593 5594 5593 5591 5589 5588 5588 5589 5588 5587 5586 5586 5586 5585 5584 5582 5580 5579
5617 5614 5611 5609 5606 5603 5600 5598 5597 5595 5593 5592 5591 5589 5587 5586 5586 5586 5585 5583 5583 5584 5585 5585 5585 5585 5586 5585 5583 5582 5581 5580 5581 5582 5581 5581 5580 5580 5579 5576 5573 5571 5569
5605 5604 5603 5600 5597 5594 5591 5590 5588 5586 5584 5583 5582 5581 5580 5578 5578 5577 5576 5574 5574 5575 5575 5576 5577 5577 5577 5576 5574 5573 5572 5572 5573 5573 5572 5572 5572 5572 5571 5570 5568 5564 5562
5596 5595 5593 5590 5587 5585 5582 5580 5578 5577 5575 5573 5572 5571 5570 5570 5569 5567 5566 5565 5565 5565 5565 5566 5567 5567 5567 5567 5565 5564 5564 5564 5564 5564 5564 5563 5563 5563 5564 5563 5562 5560 5557
5587 5585 5583 5580 5578 5576 5573 5571 5569 5567 5565 5563 5562 5561 5560 5560 5558 5557 5556 5556 5556 5554 5555 5556 5557 5557 5557 5556 5555 5555 5555 5554 5553 5553 5554 5554 5554 5554 5555 5555 5554 5554 5553
5576 5574 5572 5571 5568 5566 5563 5561 5559 5557 5555 5553 5552 5550 5549 5549 5548 5547 5547 5546 5545 5544 5544 5545 5546 5546 5546 5545 5545 5545 5545 5543 5543 5543 5543 5544 5545 5545 5545 5545 5546 5545 5545
5565 5563 5562 5560 5558 5556 5554 5552 5549 5546 5544 5543 5541 5540 5539 5538 5537 5536 5535 5534 5534 5533 5533 5534 5535 5535 5535 5535 5535 5534 5535 5534 5534 5534 5534 5535 5536 5536 5536 5536 5535 5535 5533
5555 5553 5552 5550 5548 5546 5544 5541 5538 5536 5533 5531 5530 5529 5528 5527 5527 5526 5525 5525 5524 5523 5522 5522 5523 5524 5524 5525 5525 5526 5526 5526 5526 5526 5526 5527 5527 5527 5527 5527 5526 5525 5524
5545 5543 5541 5539 5537 5535 5533 5530 5528 5526 5524 5523 5521 5519 5519 5518 5518 5517 5516 5516 5516 5515 5514 5513 5514 5515 5516 5517 5517 5517 5517 5518 5518 5519 5519 5519 5519 5518 5518 5518 5517 5517 5516
5534 5532 5530 5528 5526 5524 5522 5519 5517 5515 5513 5511 5511 5510 5509 5508 5508 5507 5507 5507 5507 5507 5505 5505 5506 5507 5508 5509 5509 5509 5509 5509 5510 5511 5511 5511 5511 5510 5509 5509 5509 5508 5508
5524 5522 5520 5517 5514 5512 5510 5509 5507 5504 5502 5501 5500 5500 5499 5499 5498 5498 5498 5498 5498 5498 5498 5498 5498 5499 5500 5500 5500 5501 5501 5501 5501 5502 5502 5502 5503 5502 5501 5501 5501 5500 5500
5513 5511 5509 5507 5504 5501 5499 5498 5496 5495 5493 5492 5491 5490 5490 5489 5489 5489 5489 5488 5487 5488 5489 5490 5491 5491 5492 5492 5493 5493 5493 5493 5494 5494 5494 5494 5494 5494 5493 5493 5493 5493 5493
5503 5502 5500 5497 5494 5492 5489 5487 5487 5486 5485 5484 5483 5481 5480 5480 5479 5479 5479 5480 5480 5481 5481 5482 5483 5484 5484 5484 5485 5485 5485 5486 5486 5487 5487 5487 5487 5486 5486 5486 5485 5485 5485
5493 5491 5490 5488 5485 5482 5480 5478 5477 5476 5476 5475 5475 5474 5473 5471 5471 5470 5471 5471 5472 5473 5474 5475 5475 5476 5476 5476 5476 5476 5477 5477 5478 5479 5479 5479 5479 5479 5479 5478 5478 5478 5478
5483 5481 5480 5478 5476 5474 5472 5470 5468 5468 5467 5466 5466 5466 5466 5464 5464 5463 5464 5464 5465 5466 5467 5467 5467 5467 5468 5468 5468 5469 5470 5470 5470 5470 5471 5472 5472 5471 5472 5471 5471 5471 5470
5474 5472 5471 5469 5468 5466 5463 5461 5460 5459 5458 5458 5458 5458 5457 5457 5457 5457 5457 5457 5458 5458 5458 5459 5459 5459 5460 5460 5461 5462 5463 5463 5463 5464 5464 5464 5464 5464 5464 5464 5464 5464 5463
5465 5463 5462 5460 5459 5457 5455 5453 5452 5451 5450 5450 5450 5449 5449 5449 5450 5450 5450 5450 5451 5451 5451 5451 5451 5452 5453 5454 5454 5455 5456 5456 5457 5457 5457 5456 5456 5456 5456 5456 5456 5456 5456
5456 5454 5452 5451 5449 5448 5447 5445 5444 5443 5442 5442 5442 5441 5441 5442 5442 5442 5443 5443 5444 5444 5444 5444 5445 5445 5446 5447 5448 5449 5450 5450 5450 5450 5450 5449 5449 5449 5449 5448 5448 5448 5447
5448 5446 5444 5442 5440 5439 5438 5437 5436 5435 5435 5435 5434 5433 5433 5433 5434 5434 5435 5436 5436 5437 5437 5437 5438 5439 5439 5440 5441 5442 5443 5444 5444 5443 5443 5442 5442 5441 5441 5440 5440 5440 5439